GW1281 Weather Reports


time (UTC)temp
F
wind
direction
speed
knots
gust
knots
rain 1hr
in
rain 24hr
in
rain mn
in
humidity
%
barometer
mb
20260507002517 67 238 1.7 6.1 0.00 0.16 0.16 77 1008.2
20260507002023 67 252 1.7 6.1 0.00 0.16 0.16 77 1008.2
20260507001540 67 204 2.6 8.7 0.00 0.16 0.16 77 1008.2
20260507001017 67 211 4.3 8.7 0.00 0.16 0.16 77 1008.0
20260507000517 67 207 3.5 7.8 0.00 0.16 0.16 77 1008.0
20260507000041 68 214 2.6 7.8 0.00 0.16 0.16 76 1008.1
20260506235517 68 191 3.5 7.8 0.00 0.16 0.16 76 1008.0
20260506235018 68 207 2.6 5.2 0.00 0.16 0.16 76 1008.0
20260506234535 68 216 1.7 5.2 0.00 0.16 0.16 76 1008.0
20260506234017 68 184 1.7 7.8 0.00 0.16 0.16 76 1008.2
20260506233517 68 163 2.6 7.8 0.00 0.16 0.16 76 1008.2
20260506233036 68 238 3.5 7.0 0.00 0.16 0.16 76 1008.0
20260506232516 68 287 1.7 6.1 0.00 0.16 0.16 76 1008.0
20260506232016 68 209 2.6 6.1 0.00 0.16 0.16 75 1007.9
20260506231543 68 233 1.7 6.1 0.00 0.16 0.16 75 1008.0
20260506231017 68 199 1.7 7.8 0.00 0.16 0.16 75 1008.0
20260506230517 68 214 3.5 7.8 0.00 0.16 0.16 75 1007.9
20260506230037 68 212 2.6 7.0 0.00 0.16 0.16 75 1007.9
20260506225518 68 213 1.7 5.2 0.00 0.16 0.16 75 1008.0
20260506225018 68 225 2.6 6.1 0.00 0.16 0.16 75 1007.9
20260506224542 68 192 3.5 6.1 0.00 0.16 0.16 75 1007.8
20260506224017 68 213 3.5 7.8 0.00 0.16 0.16 75 1007.8
20260506223520 68 201 2.6 7.8 0.00 0.16 0.16 75 1007.8
20260506223036 68 196 2.6 7.0 0.00 0.16 0.16 75 1007.9
20260506222519 68 306 1.7 7.0 0.00 0.16 0.16 75 1007.9
20260506222018 69 205 2.6 8.7 0.00 0.16 0.16 75 1007.8
20260506221535 69 250 2.6 10.4 0.00 0.16 0.16 75 1007.7
20260506221018 69 212 3.5 10.4 0.00 0.16 0.16 74 1007.7
20260506220517 69 257 2.6 10.4 0.00 0.16 0.16 74 1007.8
20260506220040 69 275 4.3 8.7 0.00 0.16 0.16 73 1007.9
20260506215517 70 227 2.6 8.7 0.00 0.16 0.16 73 1007.7
20260506215016 70 110 2.6 8.7 0.00 0.16 0.16 73 1007.6
20260506214543 70 275 1.7 8.7 0.00 0.16 0.16 74 1007.6
20260506214017 70 299 4.3 11.3 0.00 0.16 0.16 74 1007.5
20260506213516 70 202 3.5 11.3 0.00 0.16 0.16 74 1007.5
20260506213034 69 246 3.5 9.6 0.00 0.16 0.16 75 1007.6
20260506212518 69 252 2.6 7.8 0.00 0.16 0.16 75 1007.5
20260506212016 69 219 2.6 7.8 0.00 0.16 0.16 76 1007.5
20260506211534 68 352 2.6 7.0 0.00 0.16 0.16 76 1007.5
20260506211016 68 187 2.6 9.6 0.00 0.16 0.16 77 1007.3
20260506210516 68 273 1.7 10.4 0.00 0.16 0.16 76 1007.4
20260506210041 68 275 3.5 14.8 0.00 0.16 0.16 76 1007.5
20260506205518 68 200 4.3 14.8 0.00 0.16 0.16 76 1007.5
20260506205018 68 186 5.2 9.6 0.00 0.16 0.16 75 1007.6
20260506204542 68 277 3.5 10.4 0.00 0.16 0.16 76 1007.5
20260506204018 68 186 2.6 10.4 0.00 0.16 0.16 77 1007.5
20260506203517 68 259 4.3 11.3 0.00 0.16 0.16 77 1007.4
20260506203035 68 257 4.3 11.3 0.00 0.16 0.16 78 1007.4
20260506202519 67 193 3.5 9.6 0.00 0.16 0.16 78 1007.3
20260506202021 67 291 3.5 9.6 0.00 0.16 0.16 78 1007.4
20260506201534 67 253 2.6 10.4 0.00 0.16 0.16 79 1007.4
20260506201018 66 253 3.5 10.4 0.00 0.16 0.16 79 1007.4
20260506200518 66 278 2.6 9.6 0.00 0.16 0.16 78 1007.5
20260506200048 67 286 3.5 8.7 0.00 0.16 0.16 78 1007.4
20260506195518 67 320 3.5 8.7 0.00 0.16 0.16 78 1007.6
20260506195018 67 205 2.6 10.4 0.00 0.16 0.16 79 1007.5
20260506194541 66 346 3.5 10.4 0.00 0.16 0.16 79 1007.5
20260506194019 66 158 2.6 8.7 0.00 0.16 0.16 80 1007.7
20260506193517 66 318 3.5 9.6 0.00 0.16 0.16 81 1007.6
20260506193035 65 232 3.5 9.6 0.00 0.16 0.16 81 1007.6
20260506192519 65 245 3.5 9.6 0.00 0.16 0.16 81 1007.8
20260506192019 65 277 3.5 8.7 0.00 0.16 0.16 82 1007.8
20260506191535 65 281 2.6 9.6 0.00 0.16 0.16 82 1007.9
20260506191020 64 234 2.6 12.2 0.00 0.16 0.16 82 1007.9
20260506190521 64 204 3.5 12.2 0.00 0.16 0.16 82 1008.0
20260506190034 64 238 2.6 12.2 0.00 0.16 0.16 82 1007.9
20260506185519 64 217 2.6 12.2 0.00 0.16 0.16 82 1008.0
20260506185021 64 216 3.5 11.3 0.00 0.16 0.16 82 1008.0
20260506184540 64 196 4.3 11.3 0.00 0.16 0.16 83 1008.1
20260506184022 64 0 1.7 10.4 0.00 0.16 0.16 83 1008.1
20260506183518 64 146 3.5 13.0 0.00 0.16 0.16 83 1008.1
20260506183035 64 244 4.3 13.0 0.00 0.16 0.16 83 1008.2
20260506182517 64 236 4.3 11.3 0.00 0.16 0.16 84 1008.2
20260506182017 63 220 4.3 13.0 0.00 0.16 0.16 84 1008.1
20260506181555 63 259 6.1 15.6 0.00 0.16 0.16 84 1008.2
20260506181018 64 175 6.1 15.6 0.00 0.16 0.16 84 1008.2
20260506180522 64 180 7.0 13.0 0.00 0.16 0.16 84 1008.4
20260506180104 63 165 4.3 13.0 0.00 0.16 0.16 84 1008.2
20260506175518 63 203 5.2 13.9 0.00 0.16 0.16 84 1008.3
20260506175024 63 215 7.0 13.9 0.00 0.16 0.16 84 1008.2
20260506174541 63 227 5.2 13.0 0.00 0.16 0.16 84 1008.5
20260506174018 63 300 5.2 14.8 0.00 0.16 0.16 84 1008.4
20260506173518 63 202 3.5 14.8 0.00 0.16 0.16 85 1008.5
20260506173045 63 208 6.1 13.9 0.00 0.16 0.16 85 1008.5
20260506172519 63 223 4.3 11.3 0.00 0.16 0.16 85 1008.5
20260506172018 63 183 5.2 11.3 0.01 0.16 0.16 85 1008.6
20260506171535 63 198 5.2 10.4 0.01 0.16 0.16 85 1008.8
20260506171019 63 261 4.3 9.6 0.02 0.16 0.16 85 1008.8
20260506170521 63 211 4.3 13.0 0.02 0.16 0.16 86 1008.8
20260506170035 63 217 4.3 13.0 0.02 0.16 0.16 86 1008.7
20260506165519 63 225 7.8 13.0 0.03 0.16 0.16 86 1008.7
20260506165018 63 227 5.2 12.2 0.04 0.16 0.16 86 1008.8
20260506164544 63 232 5.2 13.9 0.05 0.16 0.16 86 1008.6
20260506164018 63 189 4.3 14.8 0.07 0.16 0.16 86 1008.5
20260506163519 63 202 7.8 14.8 0.08 0.16 0.16 86 1008.8
20260506163044 63 173 7.0 13.0 0.08 0.16 0.16 86 1008.8
20260506162519 63 227 7.0 12.2 0.09 0.16 0.16 85 1008.6
20260506162021 63 215 3.5 9.6 0.09 0.15 0.15 86 1008.7
20260506161536 62 223 3.5 9.6 0.10 0.15 0.15 85 1009.1
20260506161018 62 207 5.2 9.6 0.10 0.14 0.14 85 1009.4
20260506160518 62 183 5.2 9.6 0.11 0.14 0.14 85 1009.6
20260506160037 62 172 5.2 12.2 0.12 0.14 0.14 84 1009.7
20260506155517 63 179 3.5 12.2 0.12 0.13 0.13 84 1009.9
20260506155018 63 224 3.5 7.8 0.11 0.12 0.12 84 1009.9
20260506154537 63 204 3.5 7.8 0.10 0.10 0.10 83 1010.0
20260506154021 63 247 2.6 7.8 0.09 0.09 0.09 83 1010.1
20260506153518 63 263 3.5 7.8 0.08 0.08 0.08 82 1010.1
20260506153040 63 171 3.5 7.0 0.08 0.08 0.08 81 1010.0
20260506152519 63 200 2.6 7.8 0.06 0.06 0.06 81 1009.8
20260506152018 64 229 3.5 7.8 0.05 0.05 0.05 80 1009.8
20260506151541 64 190 2.6 10.4 0.05 0.05 0.05 79 1009.8
20260506151018 64 194 3.5 10.4 0.04 0.04 0.04 79 1009.8
20260506150518 64 198 3.5 8.7 0.03 0.03 0.03 78 1010.0
20260506150040 65 217 3.5 9.6 0.02 0.02 0.02 78 1009.8
20260506145519 65 207 3.5 9.6 0.01 0.01 0.01 76 1009.8
20260506145016 65 235 4.3 10.4 0.01 0.01 0.01 76 1009.6
20260506144546 65 194 6.1 10.4 0.00 0.00 0.00 75 1009.6
20260506144019 65 210 5.2 12.2 0.00 0.00 0.00 74 1009.8
20260506143518 66 242 5.2 12.2 0.00 0.00 0.00 73 1009.8
20260506143034 66 206 4.3 10.4 0.00 0.00 0.00 72 1009.9
20260506142518 66 224 4.3 12.2 0.00 0.00 0.00 71 1009.9
20260506142017 67 217 3.5 14.8 0.00 0.00 0.00 70 1009.9
20260506141541 67 180 5.2 14.8 0.00 0.00 0.00 69 1009.9
20260506141017 67 234 7.0 14.8 0.00 0.00 0.00 68 1009.8
20260506140520 67 295 4.3 11.3 0.00 0.00 0.00 68 1009.8
20260506140043 67 239 6.1 12.2 0.00 0.00 0.00 68 1009.6
20260506135518 67 194 5.2 12.2 0.00 0.00 0.00 68 1009.6
20260506135023 67 179 6.1 13.9 0.00 0.00 0.00 68 1009.7
20260506134539 67 202 5.2 15.6 0.00 0.00 0.00 69 1009.6
20260506134018 67 163 4.3 15.6 0.00 0.00 0.00 69 1009.6
20260506133518 67 215 3.5 14.8 0.00 0.00 0.00 69 1009.6
20260506133041 67 178 7.0 12.2 0.00 0.00 0.00 69 1009.9
20260506132522 67 216 5.2 10.4 0.00 0.00 0.00 69 1009.7
20260506132018 67 246 4.3 12.2 0.00 0.00 0.00 69 1009.6
20260506131536 67 233 5.2 12.2 0.00 0.00 0.00 69 1009.7
20260506131018 67 214 6.1 14.8 0.00 0.00 0.00 69 1009.7
20260506130518 67 163 6.1 14.8 0.00 0.00 0.00 69 1009.8
20260506130037 67 275 2.6 13.9 0.00 0.00 0.00 69 1009.9
20260506125517 67 282 6.1 13.9 0.00 0.00 0.00 69 1010.0
20260506125017 67 221 6.1 13.0 0.00 0.00 0.00 70 1010.0
20260506124533 67 240 3.5 13.0 0.00 0.00 0.00 70 1009.7
20260506124019 67 291 4.3 16.5 0.00 0.00 0.00 70 1009.8
20260506123522 66 297 6.1 16.5 0.00 0.00 0.00 71 1009.7
20260506123041 66 186 5.2 16.5 0.00 0.00 0.00 71 1009.8
20260506122518 66 194 5.2 13.0 0.00 0.00 0.00 71 1009.7
20260506122021 66 192 5.2 12.2 0.00 0.00 0.00 72 1009.6
20260506121536 66 209 5.2 13.9 0.00 0.00 0.00 72 1009.6
20260506121018 65 281 7.0 13.9 0.00 0.00 0.00 72 1009.6
20260506120518 65 204 7.0 12.2 0.00 0.00 0.00 73 1009.5
20260506120035 65 187 6.1 12.2 0.00 0.00 0.00 73 1009.5
20260506115520 65 222 5.2 12.2 0.00 0.00 0.00 73 1009.5
20260506115017 65 187 4.3 11.3 0.00 0.00 0.00 73 1009.6
20260506114535 65 193 5.2 13.9 0.00 0.00 0.00 74 1009.4
20260506114018 65 146 5.2 13.9 0.00 0.00 0.00 74 1009.5
20260506113517 65 144 7.0 18.2 0.00 0.00 0.00 74 1009.4
20260506113035 65 194 8.7 18.2 0.00 0.00 0.00 74 1009.4
20260506112520 65 177 7.8 19.1 0.00 0.00 0.00 74 1009.3
20260506112020 64 214 7.0 19.1 0.00 0.00 0.00 74 1009.4
20260506111540 64 206 7.0 16.5 0.00 0.00 0.00 74 1009.4
20260506111019 64 198 8.7 16.5 0.00 0.00 0.00 74 1009.3
20260506110518 64 200 7.8 16.5 0.00 0.00 0.00 74 1009.4
20260506110038 64 182 7.0 13.9 0.00 0.00 0.00 74 1009.3
20260506105518 64 233 7.0 19.1 0.00 0.00 0.00 75 1009.4
20260506105021 64 228 7.8 19.1 0.00 0.00 0.00 75 1009.4
20260506104535 64 218 8.7 18.2 0.00 0.00 0.00 75 1009.3
20260506104017 64 202 7.8 18.2 0.00 0.00 0.00 75 1009.3
20260506103518 64 219 7.0 16.5 0.00 0.00 0.00 75 1009.3
20260506103037 64 142 7.8 16.5 0.00 0.00 0.00 75 1009.4
20260506102518 64 219 6.1 15.6 0.00 0.00 0.00 75 1009.4
20260506102018 64 215 7.0 13.0 0.00 0.00 0.00 75 1009.3
20260506101536 64 202 5.2 12.2 0.00 0.00 0.00 75 1009.4
20260506101018 64 207 5.2 12.2 0.00 0.00 0.00 75 1009.4
20260506100522 64 167 5.2 13.9 0.00 0.00 0.00 75 1009.3
20260506100042 64 221 7.8 14.8 0.00 0.00 0.00 75 1009.4
20260506095518 64 212 6.1 14.8 0.00 0.00 0.00 75 1009.4
20260506095019 64 159 7.8 13.9 0.00 0.00 0.00 75 1009.4
20260506094539 65 217 6.1 14.8 0.00 0.00 0.00 74 1009.3
20260506094018 65 188 7.0 16.5 0.00 0.00 0.00 74 1009.2
20260506093518 65 194 8.7 16.5 0.00 0.00 0.00 74 1009.3
20260506093040 65 187 7.8 14.8 0.00 0.00 0.00 74 1009.2
20260506092518 65 208 7.0 14.8 0.00 0.00 0.00 74 1009.1
20260506092018 65 173 6.1 13.0 0.00 0.00 0.00 73 1009.1
20260506091536 65 209 7.0 14.8 0.00 0.00 0.00 73 1009.1
20260506091019 65 153 6.1 14.8 0.00 0.00 0.00 73 1009.2
20260506090517 65 165 7.8 16.5 0.00 0.00 0.00 73 1009.3
20260506090037 66 159 7.8 16.5 0.00 0.00 0.00 73 1009.2
20260506085517 66 164 6.1 13.0 0.00 0.00 0.00 73 1009.3
20260506085018 66 194 7.0 13.9 0.00 0.00 0.00 73 1009.4
20260506084538 66 181 6.1 13.9 0.00 0.00 0.00 73 1009.3
20260506084018 66 226 5.2 11.3 0.00 0.00 0.00 73 1009.4
20260506083518 66 207 6.1 10.4 0.00 0.00 0.00 73 1009.4
20260506083042 66 204 5.2 10.4 0.00 0.00 0.00 72 1009.4
20260506082518 66 182 6.1 11.3 0.00 0.00 0.00 72 1009.4
20260506082018 66 164 5.2 12.2 0.00 0.00 0.00 71 1009.4
20260506081537 66 183 6.1 14.8 0.00 0.00 0.00 71 1009.5
20260506081018 66 198 7.8 14.8 0.00 0.00 0.00 71 1009.5
20260506080518 66 181 6.1 13.9 0.00 0.00 0.00 71 1009.5
20260506073517 67 238 5.2 13.0 0.00 0.00 0.00 70 1009.7
20260506073035 67 209 7.0 13.0 0.00 0.00 0.00 70 1009.7
20260506072519 67 229 4.3 13.0 0.00 0.00 0.00 70 1009.6
20260506072018 67 215 7.0 13.0 0.00 0.00 0.00 70 1009.7
20260506071541 67 174 4.3 10.4 0.00 0.00 0.00 70 1009.8
20260506071018 67 156 5.2 10.4 0.00 0.00 0.00 70 1009.7
20260506070518 67 188 4.3 12.2 0.00 0.00 0.00 69 1009.7
20260506062517 68 197 4.3 8.7 0.00 0.00 0.00 68 1010.1
20260506062018 68 237 4.3 9.6 0.00 0.00 0.00 67 1010.1
20260506061534 68 218 4.3 9.6 0.00 0.00 0.00 67 1010.1
20260506061021 68 198 4.3 8.7 0.00 0.00 0.00 67 1010.1
20260506060518 68 195 4.3 8.7 0.00 0.00 0.00 67 1010.2
20260506051017 68 184 3.5 8.7 0.00 0.00 0.00 65 1010.6
20260506050517 68 192 3.5 7.8 0.00 0.00 0.00 64 1010.7
20260506045018 68 221 3.5 10.4 0.00 0.00 0.00 64 1010.8
20260506044541 68 209 3.5 10.4 0.00 0.00 0.00 63 1010.8
20260506044019 68 194 3.5 9.6 0.00 0.00 0.00 63 1010.8
20260506043519 68 210 3.5 10.4 0.00 0.00 0.00 63 1010.8
20260506043036 68 174 3.5 10.4 0.00 0.00 0.00 62 1010.8
20260506042519 68 160 3.5 9.6 0.00 0.00 0.00 62 1010.8
20260506042019 68 186 4.3 9.6 0.00 0.00 0.00 62 1010.8
20260506041547 68 146 4.3 9.6 0.00 0.00 0.00 62 1010.8
20260506041020 68 246 5.2 12.2 0.00 0.00 0.00 61 1010.7
20260506040520 69 188 5.2 13.0 0.00 0.00 0.00 61 1010.7
20260506040039 69 213 7.0 13.0 0.00 0.00 0.00 61 1010.7
20260506035518 69 212 5.2 13.0 0.00 0.00 0.00 61 1010.6
20260506035018 69 195 6.1 13.0 0.00 0.00 0.00 60 1010.6
20260506034549 69 221 5.2 13.0 0.00 0.00 0.00 60 1010.6
20260506034018 69 209 6.1 13.0 0.00 0.00 0.00 60 1010.6
20260506033518 69 188 5.2 12.2 0.00 0.00 0.00 60 1010.4
20260506033034 69 167 4.3 13.9 0.00 0.00 0.00 60 1010.3
20260506032517 69 148 6.1 13.9 0.00 0.00 0.00 60 1010.4
20260506032018 69 216 5.2 12.2 0.00 0.00 0.00 59 1010.4
20260506031536 69 183 5.2 13.0 0.00 0.00 0.00 59 1010.5
20260506031018 69 180 6.1 13.0 0.00 0.00 0.00 59 1010.4
20260506030517 69 213 4.3 13.0 0.00 0.00 0.00 59 1010.5
20260506030035 69 154 4.3 13.0 0.00 0.00 0.00 58 1010.6
20260506025518 70 223 6.1 13.0 0.00 0.00 0.00 58 1010.6
20260506025018 70 175 4.3 10.4 0.00 0.00 0.00 57 1010.7
20260506024536 70 201 4.3 10.4 0.00 0.00 0.00 57 1010.7
20260506024021 70 169 6.1 10.4 0.00 0.00 0.00 56 1010.8
20260506023518 70 208 5.2 13.9 0.00 0.00 0.00 56 1010.8
20260506023033 71 195 5.2 15.6 0.00 0.00 0.00 55 1010.7
20260506022521 71 181 7.0 15.6 0.00 0.00 0.00 54 1010.8
20260506022019 71 181 5.2 12.2 0.00 0.00 0.00 53 1010.7
20260506021550 72 149 3.5 9.6 0.00 0.00 0.00 51 1010.7
20260506021020 72 146 5.2 13.0 0.00 0.00 0.00 50 1010.6
20260506020518 73 163 5.2 13.0 0.00 0.00 0.00 49 1010.6
20260506020034 73 188 6.1 13.0 0.00 0.00 0.00 48 1010.5
20260506015520 73 215 3.5 13.9 0.00 0.00 0.00 47 1010.4
20260506015018 73 156 4.3 13.9 0.00 0.00 0.00 46 1010.4
20260506014541 74 208 4.3 13.0 0.00 0.00 0.00 46 1010.3
20260506014018 74 193 4.3 13.0 0.00 0.00 0.00 46 1010.2
20260506013522 74 184 5.2 13.9 0.00 0.00 0.00 45 1010.2
20260506013039 74 207 6.1 13.9 0.00 0.00 0.00 45 1010.2
20260506012516 74 196 4.3 11.3 0.00 0.00 0.00 44 1010.1
20260506012019 74 194 4.3 9.6 0.00 0.00 0.00 44 1010.0
20260506011559 75 187 4.3 14.8 0.00 0.00 0.00 44 1010.0
20260506011021 75 142 4.3 14.8 0.00 0.00 0.00 43 1010.0
20260506010518 75 229 6.1 17.4 0.00 0.00 0.00 43 1010.0
20260506010035 75 185 7.0 17.4 0.00 0.00 0.00 42 1009.9
20260506005518 75 228 5.2 13.0 0.00 0.00 0.00 42 1009.8
20260506005020 75 202 6.1 13.0 0.00 0.00 0.00 42 1009.9
20260506004541 76 218 5.2 11.3 0.00 0.00 0.00 41 1009.9
20260506004021 76 137 4.3 11.3 0.00 0.00 0.00 41 1009.8
20260506003518 76 208 5.2 12.2 0.00 0.00 0.00 40 1009.8
20260506003033 76 211 5.2 12.2 0.00 0.00 0.00 40 1009.7